Location: Barnston
(51.8500°N, 0.4000°E)
Time: 11:36:34
(UTC+00:00)

COSMOS 2406 - Pass Details

Date: 26 September 2023
Orbit: 843 x 863 km, 71.0° (Epoch: 10 December)

Event Time Altitude Azimuth Distance (km) Brightness Sun altitude
Exits shadow 02:14:28 61° 84° (E) 976 3.6 -30.9°
Drops below altitude 10° 02:19:37 10° 35° (NE) 2,512 6.5 -30.4°
Sets 02:22:06 0° 32° (NNE) 3,452 7.5 -30.1°
